CDT,Max TemperatureF,Mean TemperatureF,Min TemperatureF,Max Dew PointF,MeanDew PointF,Min DewpointF,Max Humidity, Mean Humidity, Min Humidity, Max Sea Level PressureIn, Mean Sea Level PressureIn, Min Sea Level PressureIn, Max VisibilityMiles, Mean VisibilityMiles, Min VisibilityMiles, Max Wind SpeedMPH, Mean Wind SpeedMPH, Max Gust SpeedMPH,PrecipitationIn, CloudCover, Events, WindDirDegrees
2012-10-1,82,70,57,63,57,52,100,72,37,29.96,29.89,29.84,10,10,10,24,6,28,0.02,1,Rain-Thunderstorm,346
2012-10-2,77,66,55,61,55,50,100,68,39,30.02,29.97,29.93,10,10,10,12,6,10,0.08,1,Rain,338
2012-10-3,82,68,55,59,56,54,100,66,39,30.02,29.97,29.93,10,10,5,14,4,18,0.00,0,,180
2012-10-4,77,70,62,70,59,52,94,76,64,30.18,30.12,30.02,10,10,5,20,9,16,0.00,4,Rain,159
2012-10-5,62,55,48,55,50,43,88,82,71,30.26,30.18,30.15,10,10,10,16,11,23,0.00,7,Rain,22
2012-10-6,51,46,42,41,39,34,87,71,50,30.34,30.28,30.25,10,10,10,16,10,23,0.00,6,,34
2012-10-7,53,47,41,43,38,34,93,76,50,30.37,30.31,30.24,10,10,10,9,4,,0.00,2,,8
2012-10-8,66,50,35,43,40,36,100,71,40,30.25,30.16,30.04,10,10,7,15,4,21,0.00,0,,190
2012-10-9,73,62,51,63,55,41,100,80,62,30.08,29.96,29.86,10,10,7,20,11,26,0.00,3,,171
2012-10-10,71,62,53,61,47,39,100,59,37,30.28,30.19,30.09,10,10,10,17,9,21,0.00,5,,77
2012-10-11,80,71,62,72,63,48,100,83,59,30.17,30.11,30.04,10,8,1,15,5,24,0.00,6,,170
2012-10-12,78,73,68,73,71,68,100,96,83,30.19,30.12,30.07,10,10,2,20,9,25,0.23,3,Rain-Thunderstorm,170
2012-10-13,80,73,66,75,72,66,100,93,78,30.07,29.90,29.72,10,10,7,22,14,31,0.23,4,Rain-Thunderstorm,181
2012-10-14,80,68,57,63,53,50,94,63,34,30.12,30.00,29.79,10,10,2,20,8,24,0.00,0,,297
2012-10-15,86,70,53,57,54,50,100,64,33,30.12,30.03,29.94,10,10,10,13,4,16,0.00,0,,213
2012-10-16,80,70,60,63,56,52,83,61,39,29.94,29.77,29.60,10,10,10,23,12,30,0.00,0,,182
2012-10-17,80,70,55,70,57,36,100,68,35,29.86,29.61,29.44,10,10,10,28,15,32,0.00,0,,281
2012-10-18,71,60,48,37,35,32,66,41,23,30.00,29.94,29.87,10,10,7,24,8,33,0.00,0,,295
2012-10-19,71,61,51,39,34,30,51,37,25,29.99,29.93,29.87,10,10,7,21,9,26,0.00,0,,286
2012-10-20,86,68,51,70,51,36,88,58,42,29.87,29.79,29.72,10,10,10,14,7,23,0.00,0,,167
2012-10-21,89,80,71,75,71,68,100,79,55,29.83,29.78,29.74,10,10,7,23,14,32,0.00,1,,177
2012-10-22,78,74,71,75,69,61,100,83,61,29.96,29.89,29.83,10,10,10,24,13,31,0.01,2,Rain-Thunderstorm,180
2012-10-23,82,76,71,73,71,70,94,84,66,29.93,29.88,29.83,10,10,10,22,13,29,0.00,4,,185
2012-10-24,80,74,68,72,70,68,100,85,74,29.93,29.87,29.75,10,10,10,25,14,34,0.00,2,,181
2012-10-25,75,60,44,68,53,41,94,77,59,30.22,29.98,29.76,10,10,7,26,15,34,0.00,2,Rain,341
2012-10-26,55,46,37,41,34,32,93,69,44,30.42,30.33,30.22,10,10,10,23,13,30,0.00,2,,8
2012-10-27,55,44,32,36,32,32,100,68,41,30.40,30.31,30.22,10,10,7,8,4,,0.00,0,,20
2012-10-28,60,46,33,37,34,32,93,64,39,30.33,30.28,30.22,10,10,5,7,1,,0.00,0,,77
2012-10-29,68,52,35,36,34,32,87,56,28,30.31,30.24,30.12,10,9,1,10,3,,0.00,0,,181
2012-10-30,78,61,44,46,42,34,72,50,32,30.11,30.00,29.90,10,10,10,14,7,21,0.00,0,,211
2012-10-31,73,58,44,48,45,41,87,61,38,30.09,30.02,29.93,10,10,2,10,4,,0.00,0,,3